Regional Weather Roundup
Issued by NWS

Home | Current Version | Previous Version | Graphics & Text | Print | Product List | Glossary Off
Versions: 1 2 3 4 5 6 7 8 9 10 11 12 13 14 15 16 17 18 19 20 21 22 23 24 25 26 27 28 29 30 31 32 33 34 35 36 37 38 39 40 41 42 43 44 45 46 47 48 49 50

000
ASUS43 KMKX 260900
RWRWI

WISCONSIN REGIONAL WEATHER ROUNDUP
NATIONAL WEATHER SERVICE MILWAUKEE/SULLIVAN WI
400 AM CDT TUE JUL 26 2016

NOTE: "FAIR" INDICATES FEW OR NO CLOUDS BELOW 12,000 FEET WITH NO
SIGNIFICANT WEATHER AND/OR OBSTRUCTIONS TO VISIBILITY.

WIZ001-002-006>008-014>016-023>028-261000-
NORTHWEST WISCONSIN

CITY           SKY/WX    TMP DP  RH WIND       PRES   REMARKS
SUPERIOR ARPT  CLEAR     66  65  94 SW7       29.98F
ASHLAND        CLEAR     65  63  93 SW8       30.00S
HAYWARD        CLEAR     60  58  92 CALM      30.04S
SIREN          NOT AVBL
CUMBERLAND     CLEAR     61  59  94 S5        30.06S
RICE LAKE      FOG       62  60  96 CALM      30.06S VSB 1/4
CHETEK         CLEAR     62  62 100 CALM      30.06S
LADYSMITH      CLEAR     63  61  94 CALM      30.07S
EAU CLAIRE     CLEAR     66  65  96 CALM      30.05S
MENOMONIE      CLEAR     65  63  94 CALM      30.05S
NEW RICHMOND   MOCLDY    65  64  94 CALM      30.05S
OSCEOLA        PTCLDY    65  65 100 CALM      30.07R
$$

WIZ003>005-009-010-017-018-261000-
NORTH CENTRAL WISCONSIN

CITY           SKY/WX    TMP DP  RH WIND       PRES   REMARKS
MANITOWISH WTR FOG       58  58 100 CALM      30.05S VSB 1
ARBOR VITAE    CLEAR     62  60  93 CALM      30.06S
WOODRUFF       CLEAR     62  60  93 CALM      30.06S
RHINELANDER    CLEAR     62  59  90 W6        30.07S
EAGLE RIVER    FOG       57  57 100 CALM      30.06S VSB 3/4
LAND O LAKES   CLEAR     54  54  99 CALM      30.06S
PHILLIPS       CLEAR     62  61  97 CALM      30.06R
TOMAHAWK       CLEAR     55  54  96 CALM      30.07S
MEDFORD        CLEAR     57  57 100 CALM      30.08R FOG
MERRILL        CLEAR     56  56 100 CALM      30.07S
$$

WIZ029-030-035-036-043>047-261000-
CENTRAL WISCONSIN

CITY           SKY/WX    TMP DP  RH WIND       PRES   REMARKS
WAUSAU         CLEAR     63  61  93 CALM      30.06R
MOSINEE        CLEAR     61  59  94 CALM      30.08R
MARSHFIELD     CLEAR     63  59  87 CALM      30.07S
STEVENS POINT  CLEAR     58  58  99 CALM      30.07S
WAUPACA        PTCLDY    64  64  98 CALM      30.05S
WAUTOMA        PTCLDY    61  60  97 CALM      30.06S
WISC RAPIDS    FOG       62  59  90 CALM      30.08S VSB 3/4
CAMP DOUGLAS   CLEAR     57  57 100 CALM      30.07R FOG
$$

WIZ011>013-019>022-031-037>040-048>050-261000-
NORTHEAST WISCONSIN

CITY           SKY/WX    TMP DP  RH WIND       PRES   REMARKS
ANTIGO         CLEAR     57  56  99 CALM      30.08R
SHAWANO        CLEAR     63  61  94 CALM      30.05R
OCONTO         CLEAR    N/A N/A N/A CALM      30.02S
STURGEON BAY   CLEAR     64  63  96 SW3       30.03R
GREEN BAY      PTCLDY    63  63 100 W5        30.03R
MANITOWOC      NOT AVBL
APPLETON       CLEAR     63  61  94 NW9       30.03R
CLINTONVILLE   PTCLDY    63  61  94 CALM      30.04S
OSHKOSH        PTCLDY    66  61  84 W5        30.04R
$$

WIZ032>034-041-042-053>061-261000-
SOUTHWEST WISCONSIN

CITY           SKY/WX    TMP DP  RH WIND       PRES   REMARKS
LA CROSSE      PTCLDY    67  65  93 SE5       30.06S
SPARTA         PTCLDY    57  57 100 CALM      30.08R
VIROQUA        PTCLDY    63  63 100 CALM      30.08S
BOSCOBEL       FOG       65  65 100 CALM      30.07R VSB 1/4
PRAIRIE DU CHI CLEAR     64  63  94 CALM      30.06S
PLATTEVILLE    CLEAR     65  65  99 CALM      30.08R
$$

WIZ056-057-062-063-064-067-068-261000-
SOUTH CENTRAL WISCONSIN

CITY           SKY/WX    TMP DP  RH WIND       PRES   REMARKS
REEDSBURG      CLEAR     63  63 100 CALM      30.06S
BARABOO/DELLS  CLEAR     62  60  94 CALM      30.07R FOG
LONE ROCK      FOG       61  60  97 CALM      30.07S VSB 1/4
MINERAL POINT  CLEAR     68  64  88 N3        30.08R
MADISON        PTCLDY    64  63  96 CALM      30.06R
MIDDLETON        N/A     64  64 100 CALM      30.07R VSB 3/4
WATERTOWN      PTCLDY    62  62 100 CALM      30.05R
MONROE         CLEAR     70  63  78 NW7       30.07R
JANESVILLE     FOG       64  63  94 CALM      30.05S VSB 1/2
$$

WIZ051-052-058>065-066-070>072-261000-
SOUTHEAST WISCONSIN

CITY           SKY/WX    TMP DP  RH WIND       PRES   REMARKS
MILWAUKEE      CLEAR     70  63  78 CALM      30.04R
WAUKESHA       CLEAR     63  61  94 CALM      30.06S
MILWAUKEE/TIMM CLEAR     66  59  77 CALM      30.05R
RACINE         CLEAR     68  63  84 W3        30.06R
BURLINGTON     CLEAR     62  62  99 CALM      30.05S
KENOSHA        CLEAR     64  63  96 W5        30.05R
FOND DU LAC    PTCLDY    64  61  90 S5        30.05R
SHEBOYGAN      CLEAR     63  60  90 NW3       30.04R
WEST BEND      CLEAR     61  61 100 CALM      30.05R
JUNEAU         CLEAR     63  62  98 CALM      30.07R FOG
$$

LSZ147-162-261000-
LAKE SUPERIOR

STATION/POSITION TIME  TEMP    WIND        PRES    WAVE
                       AIR SEA DIR/SP/G            HT/PER
                 (UTC) (F)     (DEG/KT/KT) (MB)    (FT/S)
W MID LAKE BUOY  0750   63 60  250/  8/  8 1014.1R   0
DEVILS ISLAND    0800   69     240/ 10/ 11 1015.0R
SAXON HARBOR     0800   68     200/  7/  9 1015.2
$$

LMZ867-665-643>646-261000-
LAKE MICHIGAN

STATION/POSITION TIME  TEMP    WIND        PRES    WAVE
                       AIR SEA DIR/SP/G            HT/PER
                 (UTC) (F)     (DEG/KT/KT) (MB)    (FT/S)
CHAMBERS ISLAND  0840   68     240/  4/  6 1016.3R
S GREEN BAY BUOY 0830   71 74  290/  8/  8   N/A
N MID LAKE BUOY  0750   69 69  200/  6/  6 1015.2F   1
NORTHPORT PIER   0800   66     230/  1/  2 1015.6F
SISTER BAY       0806   67        CALM       N/A
ALGOMA LAKESHORE 0713          320/  5/  6   N/A
KEWAUNEE LAKESHO 0800   67     300/  5/  7 1015.9S
SHEBOYGAN LAKESH 0800   72     290/  9/ 10 1016.4S
PORT WASHINGTON  0800   71     300/  8/  9 1017.3S
ATWATER BUOY     0800   66 58  200/  2/  2 1018.4S
MILWAUKEE LAKESH 0810   71     320/  2/  3   N/A
S MID LAKE BUOY  0750   73 73  250/  2/  2 1016.1F   0
KENOSHA   LAKESH 0800   73     260/  6/  7 1016.6S
$$

TC  - TEMPERATURE IN CELSIUS
VSB - VISIBILITY IN STATUTE MILES
WCI - WIND CHILL INDEX
HX  - HEAT INDEX





USA.gov is the U.S. government's official web portal to all federal, state and local government web resources and services.